Regional Weather Roundup
Issued by NWS Grand Forks, ND

Home | Current Version | Previous Version | Graphics & Text | Print | Product List | Glossary On
Versions: 1 2 3 4 5 6 7 8 9 10 11 12 13 14 15 16 17 18 19 20 21 22 23 24 25 26 27 28 29 30 31 32 33 34 35 36 37 38 39 40 41 42 43 44 45 46 47 48 49 50
000
ASUS43 KFGF 061510
RWRFGF
PRAIRIE TO PINES  WEATHER ROUNDUP
NATIONAL WEATHER SERVICE EASTERN NORTH DAKOTA/GRAND FORKS ND
1000 AM CDT WED MAY 06 2015

 **SATELLITE DATA USED TO AUGMENT SKY COVER AT AUTOMATED STATIONS**
 *****  WEATHER ACROSS EASTERN NORTH DAKOTA  *****

CITY           SKY/WX    TMP DP  RH WIND       PRES   REMARKS
GRAND FORKS    CLOUDY    60  56  86 S16G26    29.89F
GRAND FRKS AFB NOT AVBL
GRAND FRKS NWS   N/A     59 N/A N/A S12         N/A
DEVILS LAKE    CLOUDY    57  54  88 SE13      29.83F
FARGO          LGT RAIN  59  56  89 SE15G25   29.90F FOG
WAHPETON ARPT  CLOUDY    57  54  88 SE13      29.92F
$$

 ***** WEATHER ACROSS CENTRAL AND WESTERN NORTH DAKOTA  *****

CITY           SKY/WX    TMP DP  RH WIND       PRES   REMARKS
BISMARCK       LGT RAIN  60  58  92 E10       29.76F FOG
MINOT          CLOUDY    62  56  80 SE17G25   29.76S
JAMESTOWN      LGT RAIN  57  57 100 SE15      29.83F FOG
MINOT AFB      CLOUDY    64  64  99 S18       29.75S
GARRISON         N/A     59  58  96 SE10      29.76F
WILLISTON      PTSUNNY   62  53  72 S14       29.69F
DICKINSON      CLOUDY    58  54  86 S15       29.72F
HETTINGER      LGT RAIN  57  54  89 SE12      29.73F FOG
$$

 *****  OTHER AIRPORT OBSERVATIONS IN OUR AREA  *****

CITY           SKY/WX    TMP DP  RH WIND       PRES   REMARKS
WALHALLA       FAIR      63  63 100 S15       29.87F
GRAFTON AIRPOR CLOUDY    61  61 100 S16G23    29.90S
VALLEY CITY AR CLOUDY    55  55 100 SE15      29.87F FOG
CANDO          CLOUDY    61  57  88 S20G25    29.83F
CAVALIER APRT  CLOUDY    63  55  77 S15G22    29.87F
GWINNER        CLOUDY    57  57 100 SE20      29.87F
ROLLA          NOT AVBL
 ***** THE ABOVE OBSERVATIONS ARE NON NWS ARE NOT QUALITY
       CONTROLLED AND MAY MIS-REPORT RAIN FOR SNOW...
$$

  *****  WEATHER ACROSS NORTHERN MINNESOTA  *****

CITY           SKY/WX    TMP DP  RH WIND       PRES   REMARKS
FLAG ISLAND    CLOUDY    55  43  62 SE8       29.97F
WARROAD        CLOUDY    61  52  72 SE13      29.96F
ROSEAU         LGT RAIN  59  52  77 SE13      29.94F
HALLOCK        CLOUDY    66  55  68 S17G23    29.88F
THF RVR FALLS  PTSUNNY   66  55  68 S15G21    29.93S
BAUDETTE       RAIN      51  48  89 SE8       30.00S FOG
WASKISH        PTSUNNY   57  50  77 CALM      29.99F
CROOKSTON      PTSUNNY   64  55  72 S14       29.91F
$$
  *****  WEATHER ACROSS CENTRAL AND WEST MINNESOTA  *****

CITY           SKY/WX    TMP DP  RH WIND       PRES   REMARKS
FOSSTON        PTSUNNY   66  54  63 SE10G18   29.94F
BEMIDJI        PTSUNNY   63  54  72 SE9       29.98F
PARK RAPIDS    CLOUDY    59  53  80 SE16      29.98F
ELBOW LAKE     LGT RAIN  58  55  91 SE14G20   29.94F
WADENA         LGT RAIN  55  54  94 SE14      29.98S
DETROIT LAKES  CLOUDY    57  54  88 S12G23    29.96F
MOORHEAD       LGT RAIN  57  55  94 SE15      29.92F
FERGUS FALLS   CLOUDY    59  57  94 SE15      29.95F
MORRIS MN      LGT RAIN  57  57 100 SE17      29.93F
STAPLES        CLOUDY    55  54  94 SE8       30.00F FOG
$$
  *****  WEATHER ELSEWHERE ACROSS MINNESOTA  *****

CITY           SKY/WX    TMP DP  RH WIND       PRES   REMARKS
DULUTH         CLOUDY    52  43  71 E13       30.09F
INTRNTL FALLS  LGT RAIN  56  47  71 VRB5      30.03F
ELY            CLOUDY    61  39  44 S7        30.09F
CLOQUET        CLOUDY    48  41  76 E7        30.08F
WHEATON        LGT RAIN  55  54  94 SE20      29.93F
BRAINERD       CLOUDY    56  53  90 SE12      30.03F FOG
HIBBING        CLOUDY    52  47  83 SE6       30.08F
ALEXANDRIA     CLOUDY    56  55  97 SE15G21   29.99F FOG
SAINT CLOUD    CLOUDY    57  55  93 SE9       30.02F FOG
MINNEAPOLIS    CLOUDY    58  55  90 E12       30.04F FOG
$$

  *****  WEATHER ACROSS SOUTH DAKOTA  *****

CITY           SKY/WX    TMP DP  RH WIND       PRES   REMARKS
SIOUX FALLS    LGT RAIN  65  60  84 SE17G23   29.84F
BROOKINGS      CLOUDY    63  61  94 SE16      29.88F
WATERTOWN      CLOUDY    62  60  93 SE12      29.87F
HURON          CLOUDY    63  60  90 SE15G23   29.80F
SISSETON         N/A     58  58 100 S16       29.88F
ABERDEEN       CLOUDY    65  61  87 SE15      29.81F FOG
MITCHELL       LGT RAIN  63  61  93 SE18      29.80F FOG
PIERRE         CLOUDY    63  57  81 SE15      29.73F
MOBRIDGE       LGT RAIN  61  60  97 SE16      29.72F FOG
RAPID CITY     LGT RAIN  55  54  96 SE6       29.70F
$$

  *****  SOME WEATHER IN NEARBY STATES *****

CITY           SKY/WX    TMP DP  RH WIND       PRES   REMARKS
GLASGOW MT     CLOUDY    51  46  83 NW14G24   29.76R
GREAT FALLS MT CLOUDY    43  34  70 NW5       29.94R
CHEYENNE WY    LGT RAIN  49  46  90 N7        29.72S
SCOTTSBLUFF NE CLOUDY    55  53  93 E12       29.68S
OMAHA NE       CLOUDY    66  59  78 S22G30    29.84S
DES MOINES IA  CLOUDY    75  57  53 SE21G29   29.96F
DAVENPORT IA   MOSUNNY   64  59  83 SE12      30.13S HAZE
CHICAGO IL     PTSUNNY   58  56  93 S6        30.17F FOG
EAU CLAIRE WI  CLOUDY    56  52  86 E9        30.11F
LA CROSSE WI   LGT RAIN  60  55  83 SE6       30.11F
$$

  *****  SOME NATIONAL WEATHER *****

CITY           SKY/WX    TMP DP  RH WIND       PRES   REMARKS
LA GUARDIA NY  LGT RAIN  65  40  39 NE9       30.29F
RALEIGH NC     PTSUNNY   74  57  55 CALM      30.24F
ATLANTA GA     MOSUNNY   74  55  51 VRB5      30.23F
NEW ORLEANS LA MOSUNNY   79  63  57 SE13      30.09F
OKLAHOMA CITY  CLOUDY    70  65  84 S16G30    29.91S
ALBUQUERQUE NM PTSUNNY   58  44  60 SW10      29.96S
SALT LAKE CITY PTSUNNY   57  49  74 S13       29.81S
LOS ANGELES CA CLOUDY    59  51  75 S3        29.91S
BOISE ID       PTSUNNY   45  29  53 NW14      29.89S
SEATTLE WA     PTSUNNY   48  44  86 N5        30.14S
$$

*** WEATHER ACROSS MANITOBA...SASKATCHEWAN AND ONTARIO ***
                ***ONTARIO***

CITY           SKY/WX    TMP DP  RH WIND       PRES   REMARKS
GERALDTON      MOSUNNY   66  34  30 SW8       30.18F
THUNDER BAY    MOSUNNY   57  34  41 E9        30.18F
SIOUX LOOKOUT  MOSUNNY   61  36  39 S6        30.07F
TORONTO        MOSUNNY   64  43  45 SE14      30.29S
BIG TROUT LK   MOSUNNY   45  25  45 E8G17     30.18S
PICKLE LAKE    SUNNY     61  34  36 S5        30.08F
DRYDEN         SUNNY     63  41  45 S10       30.05F
KENORA         PTSUNNY   63  43  48 SE9       30.00F
$$
                *** MANITOBA***

CITY           SKY/WX    TMP DP  RH WIND       PRES   REMARKS
BRANDON        LGT RAIN  59  55  88 SE12G20   29.81S
DAUPHIN        MOSUNNY   68  52  56 E7        29.76F
ISLAND LAKE    PTSUNNY   46  36  66 E12G24    30.03F
PILOT MOUND      N/A     59  54  82 S17         N/A
THE PAS        CLOUDY    41  30  65 NE9       29.85R
THOMPSON       LGTSLEET  28  23  80 NE14G21   30.14F WCI  17
WINNIPEG       PTSUNNY   66  52  59 S18G25    29.88F
LYNN LAKE      FLURRIES  28  18  64 E16G23    30.13S WCI  17
GILLAM         CLOUDY    25  16  68 E6        30.27F WCI  18
$$
                ***SASKATCHEWAN***

CITY           SKY/WX    TMP DP  RH WIND       PRES   REMARKS
ESTEVAN        MOSUNNY   63  54  72 S20       29.70S
KINDERSLEY     CLOUDY    41  36  81 NW15G24   29.79R
LLOYDMINSTER   DRIZZLE   37  37 100 N13       29.78S FOG
PRINCE ALBERT  LGT RAIN  39  39 100 E13       29.76S
REGINA         CLOUDY    61  50  67 SW5       29.68F
YORKTON        PTSUNNY   63  48  59 SE16      29.70F
N. BATTLEFORD  CLOUDY    46  43  87 E12       29.73R
LA RONGE       LGT RAIN  34  32  93 NE17      29.91F WCI  23
SASKATOON      LGT RAIN  45  43  93 NE9       29.71S
SWIFT CURRENT  CLOUDY    43  39  87 W24G30    29.77R
$$
NOTE: THESE ARE AUTOMATED STATIONS WITH LIMITED QUALITY CONTROL
      "FAIR" INDICATES FEW OR NO CLOUDS BELOW 12,000 FEET WITH NO
      SIGNIFICANT WEATHER AND/OR OBSTRUCTIONS TO VISIBILITY.
      SKY/WX - SKY CONDITION AND SIGNIFICANT WEATHER.
      TMP - AIR TEMPERATURE.    DP   - DEWPOINT TEMPERATURE.
      RH  - RELATIVE HUMIDITY.  PRES - PRESSURE.
      HX  - HEAT INDEX.         WCI  - WIND CHILL INDEX.
$



USA.gov is the U.S. government's official web portal to all federal, state and local government web resources and services.